Regional Weather Roundup
Issued by NWS

Home | Current Version | Previous Version | Graphics & Text | Print | Product List | Glossary On
Versions: 1 2 3 4 5 6 7 8 9 10 11 12 13 14 15 16 17 18 19 20 21 22 23 24 25 26 27 28 29 30 31 32 33 34 35 36 37 38 39 40 41 42 43 44 45 46 47 48 49 50
000
ASUS43 KOAX 280310
RWRNE

WEATHER ROUNDUP FOR NEBRASKA
NATIONAL WEATHER SERVICE OMAHA NE
1000 PM CDT MON JUL 27 2015

NOTES: SATELLITE DATA IS BEING USED TO AUGMENT CLOUD COVER ABOVE
       12000 FEET.
       "FAIR" INDICATES FEW OR NO CLOUDS BELOW 12,000 FEET WITH NO
       SIGNIFICANT WEATHER AND/OR OBSTRUCTIONS TO VISIBILITY.

  * THESE STATIONS DO NOT REPORT WEATHER SUCH AS RAIN...SNOW OR FOG.

NEZ001>004-019>022-054>056-280400-
NEBRASKA PANHANDLE

CITY           SKY/WX    TMP DP  RH WIND       PRES   REMARKS
SCOTTSBLUFF    MOCLDY    73  64  73 VRB3      29.74S
ALLIANCE       MOCLDY    69  58  67 SE10      29.70F
CHADRON        MOCLDY    72  59  63 W12       29.75R
KIMBALL        RAIN      75  56  52 SW8G29    29.85R
SIDNEY         PTCLDY    81  63  54 S14       29.77R
$$

NEZ057>060-069>072-079>082-280400-
SOUTHWEST NEBRASKA

CITY           SKY/WX    TMP DP  RH WIND       PRES   REMARKS
NORTH PLATTE   CLEAR     84  70  62 SE13      29.74R
IMPERIAL       CLEAR     84  69  60 SE13      29.74R
LEXINGTON      CLEAR     84  70  61 SE10      29.76R
MCCOOK         CLEAR     86  68  54 S15G23    29.73R
OGALLALA       CLEAR     83  69  63 SE10      29.73R
$$

NEZ005>010-023>029-035>040-094-280400-
NORTH CENTRAL NEBRASKA

CITY           SKY/WX    TMP DP  RH WIND       PRES   REMARKS
VALENTINE      PTCLDY    84  71  65 SE14      29.71R
AINSWORTH      PTCLDY    83  72  69 SE13      29.74S
BROKEN BOW     CLEAR     82  72  71 SE12      29.77R
O`NEILL        CLEAR     82  72  71 SE14      29.77R
ORD            PTCLDY    82  73  74 SE16      29.75R
THEDFORD       PTCLDY    83  73  72 SE15      29.74S
$$

NEZ041-046>049-061>064-073>077-083>087-280400-
SOUTH CENTRAL NEBRASKA

CITY           SKY/WX    TMP DP  RH WIND       PRES   REMARKS
GRAND ISLAND   CLEAR     81  75  82 SE12      29.79R
AURORA         CLEAR     80  78  92 SE9       29.80R
HASTINGS       CLEAR     83  73  72 SE12      29.80R
HEBRON         CLEAR     82  69  62 SE10      29.81R
HOLDREGE       CLEAR     81  66  61 SE12      29.77S
KEARNEY *      CLEAR     81  70  69 SE13      29.78R
YORK           PTCLDY    81  77  89 SE9       29.81R
$$

NEZ011>018-030>034-042>045-280400-
NORTHEAST NEBRASKA

CITY           SKY/WX    TMP DP  RH WIND       PRES   REMARKS
NORFOLK        CLEAR     79  76  90 SE15      29.79R
ALBION         CLEAR     79  72  77 SE10      29.78R
BLAIR          CLEAR     75  69  80 SE14G20   29.84S
COLUMBUS *     CLEAR     82  72  69 SE8       29.80R
FREMONT        CLEAR     78  70  75 E14G21    29.83S
TEKAMAH        CLEAR     77  70  79 SE12      29.83S
WAYNE          CLOUDY    77  73  86 SE18G25   29.81R
$$

NEZ050>053-065>068-078-088>093-280400-
SOUTHEAST NEBRASKA

CITY           SKY/WX    TMP DP  RH WIND       PRES   REMARKS
LINCOLN        CLEAR     85  78  80 SE16      29.82R HX  96
OMAHA EPPLEY   PTCLDY    78  71  79 SE14      29.85R
BEATRICE       CLEAR     83  76  80 SE8       29.83R HX  91
FALLS CITY     CLEAR     78  75  90 E9        29.85R
NEBRASKA CITY  CLEAR     77  72  84 SE9G16    29.86R
PLATTSMOUTH    CLEAR     76  72  86 SE10G16   29.86R
$$

NEZ044-045-051>053-067-280400-
OMAHA AREA

CITY           SKY/WX    TMP DP  RH WIND       PRES   REMARKS
OMAHA EPPLEY   PTCLDY    78  71  79 SE14      29.85R
BLAIR          CLEAR     75  69  80 SE14G20   29.84S
FREMONT        CLEAR     78  70  75 E14G21    29.83S
MILLARD        CLEAR     78  72  82 SE13G20   29.84R
OFFUTT AFB     CLEAR     77  71  83 SE15      29.84S
PLATTSMOUTH    CLEAR     76  72  86 SE10G16   29.86R
WAHOO          FAIR      77  73  86 SE14G20   29.83R
$$



USA.gov is the U.S. government's official web portal to all federal, state and local government web resources and services.